[[{"header":{"parameterUnit":"m.s-1","parameterCategory":1,"la1":30.2991,"la2":30.254,"lo1":-89.0895,"lo2":-89.0444,"dy":0.0017,"dx":0.0017,"nx":28,"ny":28,"refTime":"2025-08-07T03:00:00:Z","depth":0,"parameterNumber":2,"parameterNumberName":"U-component_of_WINDS"},"data":[0,0,0,0,0,0,0,0,0,0,0,0,0,0,0,0,0,0,0,0,0,0,0,0,0,0,0,0,0,0,0,0,0,0,0,0,0,0,0,0,0,0,0,0,0,0,0,0,0,0,0,0,0,0,0,0,0,0,-3.3578,-3.3579,0,-3.3726,-3.3728,-3.373,-3.3733,-3.3731,-3.3729,-3.3728,-3.3882,-3.3887,-3.3893,0,0,0,0,0,0,0,0,0,0,0,0,0,-3.3297,-3.3302,-3.3577,-3.3579,-3.3581,-3.3726,-3.3728,-3.373,-3.3733,-3.3731,-3.3729,-3.3727,-3.388,-3.3887,-3.3894,0,0,0,0,0,0,0,0,0,0,0,0,0,-3.343,-3.3304,-3.3577,-3.36,-3.3604,-3.3725,-3.3728,-3.3731,-3.3734,-3.3731,-3.3728,-3.3726,-3.3878,-3.3886,-3.3895,-3.4004,0,0,-3.3921,-3.3925,0,0,0,0,0,0,0,0,-3.3422,-3.344,-3.3595,-3.3599,-3.3603,-3.3708,-3.3686,-3.3822,-3.3735,-3.3685,-3.3728,-3.3724,-3.3826,-3.3839,-3.3873,-3.4011,-3.4018,-3.3922,-3.3927,-3.3931,-3.3934,0,0,0,0,0,0,0,-3.3413,-3.3433,-3.3636,-3.3597,-3.3602,-3.3603,-3.3619,-3.3711,-3.3769,-3.3689,-3.3689,-3.3707,-3.3828,-3.3865,-3.3877,-3.402,-3.3922,-3.393,-3.3935,-3.3938,-3.4252,-3.4255,0,0,0,0,0,0,-3.3399,-3.3426,-3.3632,-3.3641,-3.3504,-3.3611,-3.3628,-3.3677,-3.3768,-3.3779,-3.3709,-3.3706,-3.3851,-3.3867,-3.3882,-3.4014,-3.3931,-3.3939,-3.3944,-3.4249,-3.4253,-3.4256,0,0,0,0,0,0,-3.3393,-3.3417,-3.3626,-3.3534,-3.356,-3.3618,-3.3673,-3.3682,-3.3718,-3.3783,-3.3794,-3.3736,-3.385,-3.387,-3.3973,-3.4019,-3.3943,-3.3951,-3.4246,-3.425,-3.4255,-3.4279,0,0,0,0,0,0,-3.3385,-3.3415,-3.3457,-3.3534,-3.3565,-3.3714,-3.3676,-3.3687,-3.3733,-3.3731,-3.3811,-3.3822,-3.3849,-3.396,-3.3982,-3.403,-3.3958,-3.4242,-3.4248,-3.4253,-3.4275,-3.4284,-3.4293,0,0,0,0,0,-3.3375,-3.3459,-3.3459,-3.3484,-3.3619,-3.3716,-3.3734,-3.3763,-3.3737,-3.3779,-3.3821,-3.3819,-3.4011,-3.397,-3.3995,-3.4047,-3.4239,-3.4246,-3.4253,-3.4271,-3.4282,-3.4292,0,0,0,0,0,0,-3.3387,-3.347,-3.3471,-3.3583,-3.3642,-3.3717,-3.3771,-3.3775,-3.3843,-3.3839,-3.3872,-3.389,-3.3992,-3.403,-3.3983,-3.4156,-3.4122,-3.4134,-3.4127,-3.4139,-3.4148,-3.4136,-3.3965,0,0,0,0,0,-3.3403,-3.3475,-3.3543,-3.3635,-3.3665,-3.3713,-3.3757,-3.3773,-3.3837,-3.3862,-3.3912,-3.3974,-3.4047,-3.4096,-3.4168,-3.4281,-3.4297,-3.4328,-3.4337,-3.4344,-3.4354,-3.4414,-3.4428,-3.4279,-3.4279,-3.4279,0,0,-3.3436,-3.349,-3.3534,-3.3639,-3.3687,-3.3761,-3.3734,-3.3814,-3.3868,-3.3875,-3.3974,-3.4012,-3.4084,-3.4191,-3.4241,-3.4226,-3.4399,-3.4353,-3.4358,-3.4364,-3.4423,-3.4437,-3.4449,-3.4284,-3.4283,-3.4282,0,0,-3.3533,-3.3582,-3.3663,-3.3711,-3.3784,-3.3815,-3.3834,-3.3908,-3.3933,-3.4034,-3.4039,-3.4105,-3.4232,-3.4282,-3.4324,-3.4438,-3.4439,-3.4461,-3.4507,-3.4566,-3.4577,-3.4588,-3.4627,-3.464,-3.4471,-3.4471,-3.4471,0,-3.3566,-3.3676,-3.3704,-3.3783,-3.3829,-3.3837,-3.3918,-3.3964,-3.4057,-3.4088,-3.407,-3.4228,-3.4277,-3.4395,-3.4422,-3.4457,-3.4479,-3.4451,-3.4573,-3.4584,-3.4594,-3.4632,-3.4646,-3.4473,-3.4473,-3.4472,-3.4472,0,-3.3711,-3.3787,-3.3844,-3.3931,-3.3983,-3.4063,-3.4104,-3.4153,-3.4165,-3.4198,-3.4299,-3.4358,-3.444,-3.447,-3.4483,-3.459,-3.4578,-3.4566,-3.4532,-3.461,-3.4645,-3.466,-3.4476,-3.4475,-3.4474,-3.4474,0,0,-3.3821,-3.3921,-3.3941,-3.398,-3.406,-3.412,-3.42,-3.4279,-3.432,-3.4384,-3.4451,-3.4557,-3.4546,-3.4594,-3.4613,-3.4664,-3.4748,-3.4646,-3.4648,-3.4661,-3.4867,-3.4874,-3.489,-3.475,-3.4753,-3.4755,-3.486,0,-3.3925,-3.4066,-3.4093,-3.4215,-3.4285,-3.4293,-3.4362,-3.4418,-3.4451,-3.4515,-3.4552,-3.4626,-3.4607,-3.4635,-3.4687,-3.4727,-3.479,-3.472,-3.4811,-3.4814,-3.4791,-3.4909,-3.4917,-3.5013,-3.4874,-3.4877,-3.4879,0,-3.4066,-3.4131,-3.4259,-3.4328,-3.4358,-3.442,-3.4494,-3.4555,-3.4619,-3.4639,-3.4691,-3.4704,-3.4787,-3.475,-3.4863,-3.4815,-3.4854,-3.488,-3.4884,-3.4892,-3.485,-3.4918,-3.5045,-3.5059,-3.4901,-3.4899,-3.4898,0,-3.413,-3.425,-3.4342,-3.4375,-3.4458,-3.45,-3.4537,-3.4598,-3.4643,-3.4709,-3.4738,-3.4813,-3.4853,-3.491,-3.4943,-3.4913,-3.5053,-3.5019,-3.5071,-3.507,-3.5099,-3.5096,-3.5232,-3.5127,-3.5127,-3.5127,-3.5126,0,-3.4243,-3.4321,-3.4371,-3.4427,-3.4514,-3.4545,-3.463,-3.4667,-3.4721,-3.4784,-3.4796,-3.4855,-3.4895,-3.496,-3.4986,-3.5075,-3.5094,-3.5111,-3.5117,-3.5109,-3.5107,-3.5134,-3.5128,-3.5131,-3.513,-3.5129,-3.5128,0,-3.4329,-3.4366,-3.4466,-3.4535,-3.4555,-3.4615,-3.4675,-3.473,-3.4762,-3.4842,-3.4862,-3.4913,-3.499,-3.5028,-3.5124,-3.5141,-3.5241,-3.5243,-3.5218,-3.522,-3.5269,-3.5263,-3.5425,-3.5447,-3.533,-3.5331,-3.5332,0,-3.4397,-3.4457,-3.4532,-3.4574,-3.4611,-3.4681,-3.4726,-3.4758,-3.4806,-3.4881,-3.4927,-3.5004,-3.5067,-3.5189,-3.5234,-3.5307,-3.5311,-3.5362,-3.5322,-3.5311,-3.5309,-3.5304,-3.5309,-3.5369,-3.537,-3.5371,-3.5372,0,-3.4514,-3.4529,-3.4594,-3.4665,-3.4719,-3.4777,-3.4834,-3.4869,-3.491,-3.4962,-3.504,-3.5089,-3.5185,-3.5261,-3.5337,-3.5375,-3.538,-3.5384,-3.54,-3.5392,-3.5374,-3.5382,-3.5236,-3.538,-3.538,-3.5379,-3.5378,-3.5378,-3.4593,-3.4645,-3.4705,-3.4777,-3.4823,-3.4875,-3.4929,-3.4967,-3.5032,-3.5112,-3.5128,-3.521,-3.5271,-3.5373,-3.5413,-3.5477,-3.5466,-3.5489,-3.5494,-3.5499,-3.55,-3.5365,-3.5492,-3.5491,-3.5491,-3.5491,-3.5491,0,-3.4709,-3.4747,-3.4813,-3.4891,-3.4947,-3.4946,-3.5009,-3.5055,-3.5127,-3.5183,-3.5244,-3.5332,-3.5405,-3.5456,-3.553,-3.5572,-3.5576,-3.559,-3.5587,-3.5595,-3.5507,-3.5485,-3.5585,-3.5585,-3.5585,-3.5585,-3.5585,-3.5585,-3.4776,-3.4863,-3.4885,-3.4995,-3.5034,-3.5113,-3.5148,-3.5196,-3.5241,-3.5338,-3.5398,-3.5431,-3.5484,-3.5562,-3.5629,-3.5642,-3.5668,-3.5682,-3.5694,-3.5611,-3.5601,-3.5592,-3.5571,-3.5687,-3.5688,-3.5776,-3.5777,-3.5778]},{"header":{"parameterUnit":"m.s-1","parameterCategory":1,"la1":30.2991,"la2":30.254,"lo1":-89.0895,"lo2":-89.0444,"dy":0.0017,"dx":0.0017,"nx":28,"ny":28,"refTime":"2025-08-07T03:00:00:Z","depth":0,"parameterNumber":3,"parameterNumberName":"V-component_of_WINDS"},"data":[0,0,0,0,0,0,0,0,0,0,0,0,0,0,0,0,0,0,0,0,0,0,0,0,0,0,0,0,0,0,0,0,0,0,0,0,0,0,0,0,0,0,0,0,0,0,0,0,0,0,0,0,0,0,0,0,0,0,1.4776,1.4776,0,1.4791,1.4792,1.4792,1.477,1.4769,1.4768,1.4768,1.4782,1.4783,1.4784,0,0,0,0,0,0,0,0,0,0,0,0,0,1.4725,1.4727,1.4776,1.4776,1.4776,1.4791,1.4792,1.4792,1.477,1.4769,1.4768,1.4767,1.4781,1.4783,1.4784,0,0,0,0,0,0,0,0,0,0,0,0,0,1.4745,1.4727,1.4776,1.4767,1.4767,1.4791,1.4792,1.4792,1.477,1.4769,1.4768,1.4767,1.4781,1.4782,1.4784,1.4817,0,0,1.4789,1.479,0,0,0,0,0,0,0,0,1.4744,1.4747,1.4768,1.4768,1.4767,1.4778,1.4779,1.48,1.4771,1.4769,1.4768,1.4766,1.4781,1.4783,1.4788,1.4818,1.4818,1.4789,1.479,1.4791,1.4791,0,0,0,0,0,0,0,1.4742,1.4746,1.4782,1.4769,1.4768,1.4762,1.4764,1.4783,1.4781,1.4769,1.4767,1.477,1.4781,1.4786,1.4788,1.4819,1.4789,1.4791,1.4792,1.4792,1.4875,1.4876,0,0,0,0,0,0,1.4742,1.4745,1.4782,1.4782,1.4753,1.4764,1.4766,1.4775,1.4781,1.4781,1.4771,1.4769,1.4784,1.4786,1.4789,1.4827,1.4791,1.4792,1.4793,1.4874,1.4875,1.4877,0,0,0,0,0,0,1.4741,1.4746,1.4781,1.4763,1.4767,1.4766,1.4777,1.4776,1.4782,1.4782,1.4782,1.4777,1.4783,1.4786,1.481,1.4827,1.4793,1.4795,1.4872,1.4874,1.4876,1.4904,0,0,0,0,0,0,1.474,1.4746,1.4759,1.4764,1.4768,1.4803,1.4778,1.4778,1.4785,1.4783,1.4788,1.4788,1.4783,1.4808,1.4812,1.4829,1.4796,1.4871,1.4873,1.4875,1.4901,1.4906,1.4911,0,0,0,0,0,1.4738,1.4766,1.476,1.4764,1.4785,1.4804,1.4806,1.48,1.4787,1.4799,1.4799,1.4788,1.4825,1.481,1.4815,1.4832,1.487,1.4873,1.4875,1.4899,1.4906,1.4911,0,0,0,0,0,0,1.4762,1.4766,1.4759,1.479,1.4797,1.48,1.4816,1.4807,1.4818,1.4815,1.4807,1.4808,1.4833,1.4835,1.4819,1.4864,1.4845,1.4849,1.4862,1.4868,1.4872,1.4871,1.4797,0,0,0,0,0,1.4771,1.4787,1.479,1.4816,1.482,1.4817,1.4826,1.482,1.4827,1.483,1.4831,1.4838,1.4851,1.4859,1.4871,1.4902,1.4902,1.4916,1.4921,1.4925,1.4928,1.4943,1.4949,1.4886,1.4886,1.4886,0,0,1.479,1.4794,1.4804,1.4821,1.4826,1.4841,1.482,1.4838,1.4849,1.4832,1.4855,1.4856,1.4863,1.489,1.4902,1.4892,1.4945,1.4928,1.4931,1.4932,1.4946,1.4952,1.4958,1.4888,1.4887,1.4887,0,0,1.4831,1.4836,1.4858,1.4863,1.4871,1.4869,1.4875,1.488,1.488,1.4903,1.489,1.4903,1.4926,1.4931,1.4936,1.4979,1.4968,1.4983,1.5007,1.5022,1.5027,1.5031,1.5046,1.5051,1.4986,1.4987,1.4987,0,1.4852,1.4876,1.487,1.4889,1.4896,1.4882,1.4904,1.4909,1.492,1.4925,1.4914,1.4942,1.4946,1.4973,1.4984,1.4989,1.4994,1.4982,1.5027,1.5031,1.5035,1.5049,1.5054,1.4988,1.4988,1.4988,1.4988,0,1.4902,1.4918,1.4935,1.4946,1.4956,1.4976,1.4972,1.4982,1.4976,1.4975,1.4998,1.5001,1.5013,1.502,1.5014,1.5046,1.504,1.5029,1.5009,1.5043,1.5055,1.5061,1.4991,1.499,1.499,1.4989,0,0,1.4958,1.4966,1.4972,1.4977,1.4984,1.4996,1.5015,1.5028,1.5036,1.5044,1.5059,1.5079,1.5068,1.5074,1.5069,1.5082,1.5114,1.5068,1.5068,1.5076,1.5149,1.5157,1.5163,1.5108,1.5109,1.5109,1.5148,0,1.4998,1.5031,1.5027,1.5058,1.5073,1.506,1.5076,1.5082,1.5082,1.5094,1.5093,1.5107,1.5092,1.5095,1.5108,1.5108,1.5129,1.5105,1.512,1.5121,1.5118,1.5169,1.5178,1.5214,1.5153,1.5153,1.5154,0,1.5049,1.506,1.5093,1.5098,1.5103,1.5118,1.5129,1.5141,1.5147,1.5146,1.5153,1.5145,1.5163,1.5144,1.5168,1.5152,1.5158,1.5159,1.516,1.516,1.5139,1.517,1.5225,1.523,1.5162,1.5161,1.5161,0,1.5086,1.5108,1.513,1.5135,1.5141,1.5152,1.5155,1.516,1.5167,1.5176,1.5181,1.5192,1.5197,1.5206,1.5201,1.5188,1.5226,1.5206,1.5224,1.5224,1.5232,1.5231,1.5288,1.5238,1.5238,1.5237,1.5237,0,1.513,1.5151,1.5147,1.516,1.5183,1.5177,1.5199,1.52,1.5205,1.5218,1.5207,1.522,1.5213,1.5225,1.5221,1.5241,1.5244,1.5243,1.5241,1.5243,1.5243,1.5246,1.5243,1.5239,1.5239,1.5238,1.5238,0,1.5174,1.5172,1.5196,1.52,1.5201,1.5218,1.522,1.5233,1.5232,1.5249,1.5252,1.525,1.5263,1.526,1.5274,1.5271,1.5296,1.5292,1.5294,1.5293,1.531,1.5308,1.537,1.5378,1.5324,1.5324,1.5325,0,1.5203,1.5218,1.5224,1.5232,1.5236,1.5249,1.5257,1.5251,1.526,1.5268,1.5279,1.5291,1.5301,1.5322,1.5322,1.5332,1.5328,1.5349,1.5329,1.533,1.5327,1.5326,1.5327,1.5352,1.5353,1.5353,1.5354,0,1.5252,1.5251,1.5262,1.5274,1.5283,1.5291,1.5299,1.5306,1.5301,1.5311,1.5324,1.5332,1.5346,1.5358,1.5368,1.537,1.5361,1.536,1.5365,1.5366,1.5366,1.5365,1.5304,1.5358,1.5358,1.5358,1.5357,1.5357,1.5289,1.5301,1.5307,1.532,1.5325,1.5332,1.5344,1.5345,1.5356,1.5368,1.5364,1.5379,1.5384,1.5396,1.54,1.5411,1.5403,1.541,1.5411,1.5413,1.5414,1.5365,1.5413,1.5413,1.5412,1.5412,1.5412,0,1.5337,1.534,1.5352,1.5363,1.5373,1.5364,1.5372,1.5381,1.5394,1.54,1.541,1.5425,1.5436,1.5437,1.5448,1.5457,1.5453,1.5459,1.5458,1.5459,1.5421,1.5416,1.5462,1.5462,1.5462,1.5462,1.5462,1.5462,1.5363,1.5384,1.5383,1.5406,1.5409,1.5424,1.5429,1.5435,1.5439,1.5457,1.5467,1.5467,1.5471,1.5481,1.5491,1.5491,1.5495,1.5503,1.5501,1.5466,1.5461,1.5457,1.5451,1.5504,1.5504,1.5537,1.5538,1.5538]}]]